Regional Weather Roundup
Issued by NWS Kansas City/Pleasant Hill, MO

Home | Current Version | Previous Version | Text Only | Print | Product List | Glossary On
Versions: 1 2 3 4 5 6 7 8 9 10 11 12 13 14 15 16 17 18 19 20 21 22 23 24 25 26 27
000
ASUS43 KEAX 230210
RWREAX

WEATHER ROUNDUP FOR EASTERN KANSAS AND NORTHWEST MISSOURI
NATIONAL WEATHER SERVICE KANSAS CITY/PLEASANT HILL MO
900 PM CDT THU JUN 22 2017

KSZ040-057-103>105-MOZ028-029-037-043-230300-
...KANSAS CITY METROPOLITAN AREA...

CITY           SKY/WX    TMP DP  RH WIND       PRES   REMARKS
K.C. INTL      MOCLDY    80  72  76 SW6       29.68R
K.C. DOWNTOWN  CLEAR     84  73  69 S7        29.66R HX  90
LEES SUMMIT    CLEAR     81  74  79 S7        29.69R
OLATHE - IXD   CLEAR     79  72  79 S5        29.69R
OLATHE - OJC   CLEAR     79  74  84 S5        29.69R
LAWRENCE       MOCLDY    81  74  79 SE5       29.66R

$$

MOZ001>008-011>017-020>025-030>033-038>040-044>046-053-054-230300-
...NORTHERN AND CENTRAL MISSOURI...

CITY           SKY/WX    TMP DP  RH WIND       PRES   REMARKS
ST. JOSEPH     PTCLDY    81  73  76 S7        29.67R
WARRENSBURG    CLEAR     79  72  78 SE3       29.68R
WHITEMAN AFB   PTCLDY    79  78  96 SE5       29.67R
CLINTON        CLEAR     81  73  78 SE5       29.68S
SEDALIA        CLEAR     79  76  90 SE6       29.69F
WARSAW         NOT AVBL
CHILLICOTHE      N/A     81  73  76 S3        29.68F
KIRKSVILLE     MOCLDY    77  72  84 S7        29.71S

$$

MOZ041-047>049-056>058-063>065-088>090-097-230300-
...EASTERN AND SOUTHERN MISSOURI...

CITY           SKY/WX    TMP DP  RH WIND       PRES   REMARKS
ST. LOUIS INTL CLOUDY    83  72  69 SE12      29.74S
SPIRIT OF STL  MOCLDY    81  73  76 SE6       29.72R
COLUMBIA       PTCLDY    79  74  84 SE6       29.70F
JEFFERSON CITY CLOUDY    81  73  76 SE5       29.68F
ROLLA          PTCLDY    77  73  87 SE7       29.73S
OSAGE BEACH    PTCLDY    79  74  84 SE5       29.71F
SPRINGFIELD    CLOUDY    80  71  74 SE13      29.71S
BRANSON        CLOUDY    75  72  88 SE9       29.74S
JOPLIN         CLEAR     81  75  82 CALM      29.68F
WEST PLAINS    CLOUDY    76  72  87 SE6       29.77S

$$

IAZ060-094-KSZ022-034>040-054-083-096-NEZ052-066-093-230300-
...KANSAS...SOUTHEAST NEBRASKA AND IOWA...

CITY           SKY/WX    TMP DP  RH WIND       PRES   REMARKS
TOPEKA         PTCLDY    84  73  69 SW6       29.67R HX  90
MANHATTAN      CLEAR     85  69  58 S7        29.64R
EMPORIA        CLEAR     78  72  81 S6        29.69R
CHANUTE        CLEAR     80  71  74 S5        29.66S
WICHITA        PTCLDY    82  71  69 SE8       29.67R
OMAHA          CLOUDY    83  68  60 N9        29.66R
LINCOLN        MOCLDY    82  68  62 N17       29.67R
FALLS CITY     CLEAR     81  71  71 SE7       29.64R
LAMONI         PTCLDY    79  71  76 S7        29.68S
DES MOINES     PTCLDY    81  71  71 S6        29.63F

$$





USA.gov is the U.S. government's official web portal to all federal, state and local government web resources and services.